Zurück zum Katalog

HULIANWANG DIGUI-129

AktivKommunikationLEO
NORAD 67237·PAYLOAD·🇨🇳 China

Gestartet Dec 25, 2025 von Wenchang Space Launch Site

Loading…

Nächste Überflüge (nächste 24 Stunden)

TLE

AktuellSource: Space-Track

Epoche: Sep 14, 2026, 17:36 UTC

1 67237U 25311B   26257.73391007 -.00000080  00000-0  95963-4 0  9994
2 67237  50.0068 154.4664 0000250 323.7707  36.3148 13.29328266 35254

Verfolge HULIANWANG DIGUI-129 in Echtzeit mit AllMySat

Download on the App Store